Weather History for KGAD - October, 2012

Change the Weather History Date:

Sunday, October 28, 2012

  Actual Average (KANB) Record (KANB)
Temperature  
Mean Temperature 52 °F 59 °F  
Max Temperature 57 °F 71 °F 85 °F (1991)
Min Temperature 48 °F 47 °F 24 °F (1957)
Degree Days  
Heating Degree Days 12    
Month to date heating degree days  
Since 1 July heating degree days  
Growing Degree Days 2 (Base 50)    
Moisture  
Dew Point 39 °F    
Average Humidity 63    
Maximum Humidity 87    
Minimum Humidity 41    
Precipitation  
Precipitation 0.00 in 0.11 in 0.79 in (1955)
Month to date precipitation 2.80  
Year to date precipitation 40.65  
Sea Level Pressure  
Sea Level Pressure 29.93 in    
Wind  
Wind Speed 10 mph (NNW)    
Max Wind Speed 16 mph    
Max Gust Speed 23 mph    
Visibility 10 miles    
Events      
T = Trace of Precipitation, MM = Missing Value Source: NWS Daily Summary

Daily Weather History Graph

Daily Weather History Graph

Search for Another Location

Airport or City:

Trip Planner

Search our weather history database for the weather conditions in past years. The results will help you decide how hot, cold, wet, or windy it might be!

Date:

Astronomy

Oct. 28, 2012 Rise Set
Actual Time 7:00 AM CDT 5:55 PM CDT
Civil Twilight 6:35 AM CDT 6:20 PM CDT
Nautical Twilight 6:05 AM CDT 6:50 PM CDT
Astronomical Twilight 5:36 AM CDT 7:19 PM CDT
Moon 5:12 PM CDT (10/28) 5:54 AM CDT (10/28)
Length of Visible Light 11h 45m
Length of Day
10h 54m
Waxing Gibbous, 99% of the Moon is Illuminated
Oct 28
Waxing Gibbous
Oct 29
Full
Nov 6
Last Quarter
Nov 13
New
Nov 20
First Quarter

Hourly Weather History & Observations

Time (CDT) Temp. Dew Point Humidity Pressure Visibility Wind Dir Wind Speed Gust Speed Precip Events Conditions
12:15 AM 51.8 °F 42.8 °F 71% 29.91 in 10.0 mi North 10.4 mph - N/A   Overcast
12:55 AM 51.8 °F 42.8 °F 71% 29.91 in 10.0 mi NNW 11.5 mph 16.1 mph N/A   Overcast
1:15 AM 51.8 °F 42.8 °F 71% 29.90 in 10.0 mi North 10.4 mph - N/A   Overcast
1:35 AM 51.8 °F 42.8 °F 71% 29.90 in 10.0 mi North 8.1 mph - N/A   Overcast
1:55 AM 51.8 °F 42.8 °F 71% 29.89 in 10.0 mi NNW 8.1 mph - N/A   Overcast
2:15 AM 51.8 °F 42.8 °F 71% 29.89 in 10.0 mi NNW 6.9 mph - N/A   Overcast
2:35 AM 51.8 °F 42.8 °F 71% 29.89 in 10.0 mi NNW 9.2 mph - N/A   Overcast
2:55 AM 50.0 °F 42.8 °F 76% 29.89 in 10.0 mi NNW 8.1 mph - N/A   Overcast
3:15 AM 50.0 °F 42.8 °F 76% 29.89 in 10.0 mi North 8.1 mph - N/A   Overcast
3:35 AM 50.0 °F 44.6 °F 82% 29.89 in 10.0 mi NNW 6.9 mph - N/A   Overcast
4:15 AM 50.0 °F 44.6 °F 82% 29.89 in 10.0 mi NNW 10.4 mph - N/A   Overcast
4:35 AM 50.0 °F 44.6 °F 82% 29.90 in 10.0 mi NNW 8.1 mph - N/A   Overcast
4:55 AM 48.2 °F 44.6 °F 87% 29.90 in 9.0 mi North 8.1 mph - N/A   Overcast
5:15 AM 48.2 °F 44.6 °F 87% 29.90 in 10.0 mi NNW 5.8 mph - N/A   Overcast
5:55 AM 50.0 °F 42.8 °F 76% 29.89 in 10.0 mi North 6.9 mph - N/A   Overcast
6:15 AM 50.0 °F 42.8 °F 76% 29.90 in 10.0 mi NNW 8.1 mph - N/A   Overcast
6:35 AM 50.0 °F 42.8 °F 76% 29.90 in 10.0 mi NW 8.1 mph - N/A   Overcast
7:15 AM 48.2 °F 42.8 °F 82% 29.91 in 10.0 mi NNW 6.9 mph - N/A   Overcast
7:35 AM 50.0 °F 42.8 °F 76% 29.91 in 10.0 mi NNW 6.9 mph - N/A   Overcast
7:56 AM 50.0 °F 42.8 °F 76% 29.92 in 10.0 mi NW 6.9 mph - N/A   Overcast
8:15 AM 50.0 °F 42.8 °F 76% 29.93 in 10.0 mi NW 8.1 mph - N/A   Overcast
8:55 AM 50.0 °F 42.8 °F 76% 29.94 in 10.0 mi NNW 11.5 mph 17.3 mph N/A   Overcast
9:15 AM 50.0 °F 42.8 °F 76% 29.94 in 10.0 mi NNW 11.5 mph 19.6 mph N/A   Overcast
10:15 AM 50.0 °F 41.0 °F 71% 29.94 in 10.0 mi NNW 12.7 mph 19.6 mph N/A   Overcast
10:35 AM 50.0 °F 41.0 °F 71% 29.94 in 10.0 mi NNW 15.0 mph 19.6 mph N/A   Overcast
10:55 AM 51.8 °F 39.2 °F 62% 29.95 in 10.0 mi North 11.5 mph 17.3 mph N/A   Overcast
11:15 AM 51.8 °F 39.2 °F 62% 29.95 in 10.0 mi NNW 12.7 mph 19.6 mph N/A   Overcast
11:35 AM 51.8 °F 39.2 °F 62% 29.95 in 10.0 mi North 12.7 mph 18.4 mph N/A   Overcast
11:55 AM 53.6 °F 39.2 °F 58% 29.95 in 10.0 mi North 12.7 mph 20.7 mph N/A   Overcast
12:15 PM 53.6 °F 39.2 °F 58% 29.93 in 10.0 mi NNW 10.4 mph 19.6 mph N/A   Overcast
12:55 PM 55.4 °F 39.2 °F 54% 29.93 in 10.0 mi NNW 12.7 mph 21.9 mph N/A   Mostly Cloudy
1:15 PM 57.2 °F 39.2 °F 51% 29.93 in 10.0 mi North 16.1 mph 23.0 mph N/A   Overcast
1:35 PM 55.4 °F 39.2 °F 54% 29.93 in 10.0 mi NW 10.4 mph 20.7 mph N/A   Overcast
1:55 PM 55.4 °F 37.4 °F 51% 29.93 in 10.0 mi NNW 9.2 mph - N/A   Overcast
2:15 PM 55.4 °F 39.2 °F 54% 29.93 in 10.0 mi North 15.0 mph 20.7 mph N/A   Overcast
2:35 PM 55.4 °F 37.4 °F 51% 29.93 in 10.0 mi NW 13.8 mph 19.6 mph N/A   Overcast
2:55 PM 55.4 °F 37.4 °F 51% 29.93 in 10.0 mi NW 13.8 mph 20.7 mph N/A   Overcast
3:55 PM 55.4 °F 37.4 °F 51% 29.94 in 10.0 mi North 11.5 mph 17.3 mph N/A   Overcast
4:15 PM 55.4 °F 37.4 °F 51% 29.94 in 10.0 mi North 12.7 mph 19.6 mph N/A   Scattered Clouds
4:35 PM 55.4 °F 35.6 °F 47% 29.93 in 10.0 mi NNW 10.4 mph 18.4 mph N/A   Partly Cloudy
4:55 PM 55.4 °F 35.6 °F 47% 29.94 in 10.0 mi NNW 12.7 mph 18.4 mph N/A   Partly Cloudy
5:35 PM 55.4 °F 33.8 °F 44% 29.94 in 10.0 mi NNW 13.8 mph 17.3 mph N/A   Clear
5:55 PM 53.6 °F 32.0 °F 44% 29.95 in 10.0 mi NNW 10.4 mph 21.9 mph N/A   Clear
6:16 PM 53.6 °F 30.2 °F 41% 29.95 in 10.0 mi NNW 10.4 mph 17.3 mph N/A   Clear
7:15 PM 51.8 °F 30.2 °F 44% 29.97 in 10.0 mi NNW 8.1 mph - N/A   Clear
7:35 PM 51.8 °F 30.2 °F 44% 29.98 in 10.0 mi NNW 9.2 mph - N/A   Clear
7:55 PM 50.0 °F 30.2 °F 47% 29.98 in 10.0 mi NNW 5.8 mph - N/A   Clear
8:55 PM 48.2 °F 32.0 °F 54% 29.99 in 10.0 mi North 9.2 mph - N/A   Clear
9:55 PM 48.2 °F 30.2 °F 50% 30.00 in 10.0 mi North 6.9 mph - N/A   Clear
10:35 PM 48.2 °F 30.2 °F 50% 30.01 in 10.0 mi North 8.1 mph - N/A   Clear
11:15 PM 48.2 °F 30.2 °F 50% 30.00 in 10.0 mi North 8.1 mph - N/A   Clear
11:35 PM 48.2 °F 30.2 °F 50% 30.00 in 10.0 mi North 9.2 mph - N/A   Clear
11:55 PM 48.2 °F 28.4 °F 46% 30.01 in 10.0 mi North 9.2 mph - N/A   Clear